Location: St. Louis
(38.6270°N, 90.1994°W)
Time: 08:09:10
(UTC-06:00)

ISS - Visible Passes

Search period start: 13 December 2025 00:00
Search period end: 23 December 2025 00:00
Orbit: 416 x 420 km, 51.6° (Epoch: 12 December)

Date Brightness Start Highest point End Pass type
(mag) Time Alt. Az. Time Alt. Az. Time Alt. Az.
13 Dec -3.8 06:22:33 10° SW 06:25:55 82° NW 06:29:17 10° NE visible
14 Dec -3.1 05:35:34 17° SSW 05:37:57 54° SE 05:41:16 10° ENE visible
15 Dec -1.6 04:50:48 26° ESE 04:50:48 26° ESE 04:53:01 10° ENE visible
15 Dec -2.8 06:23:49 10° W 06:26:46 30° NNW 06:29:48 10° NE visible
16 Dec -3.5 05:38:36 48° NW 05:38:38 48° NW 05:41:56 10° NE visible
17 Dec -1.1 04:53:06 16° NE 04:53:06 16° NE 04:53:55 10° NE visible
17 Dec -1.9 06:26:04 12° NW 06:27:45 16° NNW 06:29:57 10° NNE visible
18 Dec -1.9 05:40:19 20° N 05:40:19 20° N 05:42:09 10° NNE visible
19 Dec -1.4 06:27:53 10° NNW 06:28:47 11° NNW 06:29:41 10° N visible
20 Dec -1.3 05:41:19 12° N 05:41:19 12° N 05:42:01 10° NNE visible
